Wind_Speed
2 2 2 2 2 2 2 1 2 3 4 6 7 9 10 12 13 15 16 17 19 22 25 28 30 30 28 25 20 15 11 10 9 10 12 11 12 12 12 12 12 13 15 17 16 14 14 13 12 10 9 8 6 4 3 1 1 4 6 9 10 9 7 6 8 7 8 10 12 13 15 16 13 9 6 7 12 16 17 17 16 15 15 16 17 18 19 21
4 4 4 4 4 4 4 4 4 4 5 6 8 9 10 12 13 15 16 16 17 19 22 26 28 28 26 24 20 14 11 9 8 9 10 10 11 12 12 11 10 11 14 16 16 15 15 14 13 12 10 7 6 5 2 2 1 5 7 10 9 7 8 8 9 10 12 13 13 13 16 18 15 10 7 10 13 16 18 19 19 18 18 18 19 20 21 24
6 6 6 7 7 7 7 7 6 6 6 7 9 10 11 13 14 15 16 16 16 17 20 23 26 26 24 23 20 14 10 8 8 7 8 9 10 12 12 12 11 12 13 15 17 17 16 14 12 12 10 8 7 4 3 3 1 3 5 9 8 7 9 9 11 14 16 16 16 16 19 20 17 12 10 13 16 16 19 20 20 19 19 19 20 21 23 26
9 9 9 9 10 10 10 10 9 9 9 9 10 11 13 14 15 15 16 16 16 15 17 21 24 24 22 22 19 15 10 8 8 7 8 9 10 12 13 13 13 13 13 15 17 17 16 14 12 12 11 11 9 5 5 4 3 4 6 6 6 7 10 10 14 17 17 18 18 19 19 18 17 14 13 15 18 18 20 22 21 20 20 21 22 23 25 28
11 11 12 12 12 12 13 13 13 12 11 11 11 13 14 15 16 16 17 17 16 15 15 18 21 22 20 19 18 15 11 7 8 7 7 8 10 11 13 15 15 14 14 15 18 18 18 17 14 13 12 12 11 7 7 8 7 6 8 6 6 7 7 9 13 16 16 17 18 18 17 15 15 15 14 15 18 20 21 22 22 21 22 23 23 24 26 29
11 12 13 13 13 13 14 14 15 15 14 14 13 14 15 16 17 18 17 17 17 15 14 15 19 20 18 17 16 14 11 8 8 8 7 8 9 11 13 16 16 15 14 16 19 20 19 19 16 14 13 13 10 8 8 10 10 9 10 7 4 7 8 9 11 13 14 15 16 15 14 14 15 16 16 16 18 21 22 22 22 22 23 23 24 25 28 32
11 12 13 14 14 14 14 15 15 16 16 15 15 16 16 17 18 18 18 17 16 15 14 14 16 18 17 15 14 13 11 9 9 8 7 8 9 10 13 16 17 15 15 17 20 21 20 19 17 15 15 12 8 9 9 11 12 9 8 7 5 8 10 10 10 12 12 13 13 12 12 14 16 18 19 18 20 22 23 23 22 22 23 24 25 27 31 36
12 13 14 15 15 15 15 15 16 16 16 16 16 16 17 17 18 18 18 17 17 15 14 13 14 16 15 13 12 11 10 10 10 9 8 8 9 11 12 15 16 15 16 19 21 23 23 20 18 17 16 12 10 10 10 10 10 8 8 9 9 10 10 9 10 11 11 12 11 9 11 14 17 20 21 20 22 24 23 23 22 22 23 25 27 30 34 38
14 14 15 16 16 16 16 16 16 17 17 17 17 17 17 17 17 18 18 18 17 16 15 13 13 13 14 12 10 10 9 9 10 10 9 9 10 11 12 15 16 17 18 20 22 24 24 21 18 18 16 13 12 12 11 8 7 9 11 11 10 11 10 9 10 10 10 11 9 7 12 16 21 22 20 21 23 22 21 21 21 22 25 27 29 32 36 40
15 16 16 16 17 17 17 17 17 18 18 18 19 19 18 17 18 18 18 19 18 17 16 14 13 12 12 11 8 9 8 7 9 10 10 10 11 12 13 15 17 18 20 21 22 23 23 21 18 17 16 13 13 12 11 9 9 12 12 11 11 12 12 10 9 8 9 11 10 9 13 18 22 22 21 22 21 19 19 21 23 25 27 29 32 36 39 40
17 17 17 17 17 17 17 17 17 18 18 19 19 20 20 19 19 19 19 19 19 18 17 16 15 13 11 10 8 8 7 6 8 9 9 10 11 13 14 15 17 18 20 21 22 23 23 21 18 18 16 14 14 12 11 11 12 12 11 10 12 13 11 9 8 7 7 10 12 14 17 18 20 22 21 19 18 17 19 22 25 27 29 32 36 39 41 39
18 18 18 17 17 16 17 17 17 17 18 18 19 20 20 20 20 20 20 19 20 20 18 17 16 14 12 10 8 7 6 6 7 8 9 10 11 12 13 14 16 18 19 20 21 22 22 21 19 18 16 15 15 12 10 12 13 11 10 10 12 12 10 8 8 8 8 11 15 18 19 18 17 20 20 18 17 18 21 25 28 30 31 34 39 40 39 38
20 19 19 18 17 17 17 17 17 17 18 18 19 19 20 20 20 20 20 20 20 21 20 18 17 15 13 10 9 8 7 6 7 7 9 9 9 11 13 14 15 17 18 18 19 21 21 20 20 19 16 15 15 11 9 12 13 10 9 11 12 10 9 9 8 11 14 16 17 18 19 19 17 19 19 18 19 19 23 28 31 32 34 37 40 39 37 37
21 20 19 19 18 18 17 18 18 18 18 18 19 20 20 19 20 20 20 20 20 21 21 19 17 16 14 11 11 9 8 8 7 7 9 8 9 11 12 14 14 16 17 17 18 19 20 20 20 19 18 17 13 9 10 13 11 8 8 9 10 9 9 11 13 17 20 18 18 20 22 21 17 17 18 18 21 23 28 32 33 34 37 40 40 38 36 36
22 21 20 20 20 19 19 19 19 19 19 19 19 19 20 20 20 20 20 20 20 21 21 19 18 17 15 13 12 10 10 10 8 8 8 8 9 10 11 13 14 15 16 16 18 18 19 20 19 18 18 17 12 10 13 15 10 7 8 7 7 8 11 15 18 21 20 17 18 20 19 17 17 18 19 21 24 27 31 34 35 37 40 41 40 38 37 36
23 22 22 22 21 21 21 20 20 20 20 20 19 19 20 21 21 20 20 20 20 21 21 20 19 18 17 15 13 11 10 10 10 9 9 9 10 10 11 13 14 16 16 16 18 18 19 19 19 18 16 15 13 12 14 15 10 8 8 9 10 12 16 20 21 21 20 20 21 20 18 18 20 21 24 26 28 30 33 36 38 41 43 43 41 39 38 37
24 23 23 23 23 23 23 22 22 21 21 21 21 20 20 21 21 21 21 21 21 21 22 21 20 19 17 15 13 11 11 13 13 12 11 10 11 11 12 14 15 16 17 17 18 19 19 20 20 18 14 13 13 13 14 16 16 12 11 13 16 18 22 23 22 23 24 24 24 23 22 24 24 24 27 30 31 33 35 38 40 41 43 43 41 39 38 37
24 24 25 25 25 24 24 24 24 24 23 23 23 23 22 23 23 23 23 23 22 22 22 21 20 20 18 16 16 16 16 17 16 13 12 11 12 12 12 15 16 17 19 19 19 20 19 20 20 17 14 13 12 12 15 18 20 18 16 18 21 22 24 24 23 24 24 24 24 24 25 26 26 28 29 32 33 35 37 40 42 42 42 41 40 38 37 36
26 25 26 26 26 26 26 26 26 26 26 25 25 25 25 25 24 24 23 23 22 21 21 22 22 22 20 20 21 20 18 18 17 15 13 13 12 13 14 16 17 18 20 20 21 22 20 20 20 17 16 14 12 14 17 19 20 19 19 21 23 25 26 25 23 23 23 24 25 26 27 26 28 30 31 33 35 37 40 42 43 42 42 40 39 38 37 35
27 27 27 27 27 28 28 28 28 28 28 27 27 27 27 26 25 25 24 23 23 23 22 23 23 24 24 24 23 21 20 19 18 16 14 14 13 14 15 17 19 19 20 21 22 22 21 21 19 18 18 16 16 18 19 19 19 18 20 22 23 25 28 25 21 22 22 24 27 27 27 28 29 30 31 35 38 41 43 43 43 43 42 41 39 37 36 35
29 28 28 28 29 29 29 29 30 30 30 30 30 29 29 29 29 29 28 26 25 25 25 25 25 25 24 24 23 22 21 20 19 16 15 15 15 15 16 20 22 20 20 22 22 22 22 21 19 19 19 18 18 19 19 19 18 20 22 23 24 25 27 25 22 23 24 27 30 29 30 31 31 30 33 38 41 42 43 42 43 43 42 41 39 36 36 35
31 30 30 30 30 31 31 31 31 32 32 32 32 32 31 31 31 31 32 31 29 29 29 28 27 26 24 24 22 20 20 19 18 16 16 16 15 16 18 21 22 21 22 23 22 22 22 20 20 21 20 19 19 19 19 19 20 22 22 23 25 24 25 26 23 23 25 28 31 31 34 37 35 34 35 37 39 39 40 42 42 42 41 41 39 37 37 37
33 33 32 32 32 32 33 33 33 33 33 33 33 33 32 32 32 32 32 33 33 31 31 30 29 26 23 20 17 16 17 17 17 17 17 17 17 19 20 22 23 23 24 24 23 23 22 21 22 21 20 21 21 20 20 21 22 23 23 23 26 25 24 26 24 23 25 27 32 36 41 42 38 34 33 34 36 38 39 41 41 41 42 41 39 39 38 38
35 35 34 34 34 35 35 35 35 35 34 34 34 33 33 32 32 32 32 33 34 33 32 31 27 21 15 12 12 12 13 15 17 18 18 18 20 20 21 23 24 25 26 25 24 24 23 22 22 21 22 23 21 21 22 23 23 23 23 24 26 25 23 26 26 26 29 31 33 35 39 40 33 27 27 29 32 35 36 39 40 41 42 41 40 40 39 39
38 37 37 37 37 37 37 37 36 36 35 34 34 34 33 32 32 32 31 31 32 32 29 26 20 13 10 10 11 11 12 15 17 18 18 20 21 22 22 24 25 26 27 27 25 24 23 22 22 23 24 23 21 22 22 22 24 25 25 23 24 24 24 25 26 27 31 31 28 23 21 23 21 18 20 24 28 31 34 38 39 41 42 41 40 39 39 39
39 39 39 38 39 39 39 38 37 36 35 35 34 33 32 31 30 30 30 27 28 29 23 17 13 10 11 11 10 10 12 15 17 18 19 19 21 22 23 25 27 27 28 28 25 24 23 23 25 26 24 22 21 22 22 21 23 25 26 24 23 25 25 26 26 26 27 26 26 22 16 17 22 23 25 26 28 30 34 38 39 41 41 41 40 39 39 38
41 41 41 41 41 40 40 39 38 37 36 34 34 33 31 30 28 28 26 17 16 22 18 13 12 13 13 11 10 11 12 13 13 15 17 19 21 23 24 27 29 29 29 27 24 23 23 25 27 25 23 22 21 21 20 20 22 25 27 26 26 28 27 28 28 27 31 33 33 31 24 24 29 32 31 29 28 31 35 38 40 41 41 40 39 38 38 38
43 43 43 43 42 41 41 40 38 38 36 34 34 32 30 28 26 25 18 6 8 19 17 14 16 15 14 12 12 14 15 15 14 15 19 22 23 24 26 28 29 30 30 27 27 25 25 27 27 24 23 22 20 20 20 21 22 24 27 27 28 28 28 30 29 31 33 29 29 30 21 18 24 28 26 24 27 32 35 38 39 40 39 38 38 37 37 37
44 45 45 44 43 42 41 40 38 37 36 34 33 31 29 27 24 20 9 2 10 17 16 16 18 16 15 14 15 16 17 17 16 19 23 24 26 27 28 29 29 30 29 28 29 28 26 27 25 23 23 22 20 20 20 21 22 24 26 27 28 28 29 30 27 30 27 18 25 31 18 12 16 23 22 20 26 31 32 35 38 37 37 37 37 36 37 38
46 46 45 44 43 42 40 39 37 36 35 34 31 30 28 24 20 11 2 6 15 17 17 19 19 18 16 16 16 16 17 17 19 24 26 26 27 28 29 30 30 29 27 27 29 28 26 26 23 23 23 22 21 19 19 19 20 23 24 26 27 27 27 25 22 23 16 10 21 27 20 17 13 16 21 22 25 27 27 32 34 33 35 36 35 36 37 37
46 45 44 43 42 41 40 37 37 36 34 33 31 29 25 20 13 3 4 14 21 18 18 19 17 16 16 15 15 15 18 22 25 26 26 28 29 30 30 28 26 28 28 26 26 26 26 24 24 25 23 20 20 18 18 19 20 21 22 24 24 20 17 15 14 12 5 6 16 15 14 19 16 17 22 24 27 27 27 29 29 31 33 33 34 37 37 36
43 43 43 42 41 40 38 36 36 35 33 32 30 27 23 15 10 13 16 21 16 10 12 13 13 14 13 14 16 19 24 29 29 27 28 31 33 32 29 24 23 25 25 24 26 29 31 28 24 22 19 17 16 16 18 18 18 19 19 18 14 10 8 5 4 4 6 10 15 10 8 16 27 33 31 30 34 33 30 29 28 30 32 32 35 37 38 37
42 42 41 40 40 39 37 35 35 33 32 31 28 26 19 9 11 21 27 24 16 15 17 16 17 16 15 18 23 26 29 30 29 28 31 34 35 33 26 23 22 21 23 27 30 30 27 22 17 15 15 12 12 16 18 18 18 17 16 14 8 2 4 4 3 3 7 12 15 14 11 14 26 30 27 28 33 32 32 32 31 32 32 34 37 38 40 39
43 42 41 41 40 38 36 35 34 34 32 30 28 24 17 14 19 28 31 30 28 29 29 27 25 22 21 25 28 28 28 29 30 31 32 33 32 29 26 24 22 20 23 26 26 21 15 14 13 13 13 11 14 17 17 19 20 19 17 13 12 10 6 5 4 3 7 13 16 14 10 11 16 16 15 19 23 27 31 32 33 34 32 34 38 39 40 40
42 42 42 41 39 38 36 34 34 34 32 31 28 23 24 25 28 31 32 32 30 31 31 31 29 26 27 30 30 28 27 27 29 29 29 30 30 30 29 25 21 19 20 20 18 15 14 17 17 16 16 16 18 19 17 17 17 17 15 14 16 16 14 13 12 12 12 15 15 13 14 20 23 25 26 27 29 30 30 32 33 32 32 34 37 40 41 40
43 43 42 40 39 38 36 35 35 34 33 31 28 30 35 36 33 30 31 29 25 26 27 27 27 28 30 29 27 26 25 25 28 28 28 30 30 30 27 21 17 16 16 18 18 14 15 20 21 21 23 22 21 20 18 17 15 15 16 18 20 19 18 19 15 12 9 10 13 15 19 27 27 29 33 31 31 32 29 32 32 30 32 34 37 40 40 38
44 44 43 41 39 37 36 36 35 35 34 33 34 38 41 42 38 35 35 34 31 29 26 25 26 26 25 22 22 25 25 26 27 27 28 27 24 22 20 17 16 15 14 17 19 18 19 27 32 29 26 24 22 20 21 22 22 22 22 21 20 17 17 16 7 5 2 4 12 14 20 25 17 15 26 27 27 30 30 31 31 30 32 34 37 39 37 36
45 45 45 43 38 37 38 37 36 36 35 35 40 42 43 44 42 39 38 38 36 33 32 31 30 29 27 26 28 30 29 27 27 25 28 28 24 22 19 17 17 17 18 19 20 20 20 27 33 28 22 22 21 20 23 25 26 27 27 24 20 14 13 12 7 3 2 4 9 9 15 24 22 22 29 32 30 29 31 31 29 30 32 34 37 36 33 36
46 46 47 44 38 37 39 39 38 38 38 41 44 44 45 46 44 40 38 38 37 35 36 37 35 33 32 32 33 32 30 30 29 27 28 26 23 24 22 20 22 23 24 22 20 22 22 21 25 26 22 21 21 23 27 28 28 28 28 27 26 23 20 16 12 7 4 5 8 8 11 16 23 29 30 27 27 26 27 28 27 29 33 34 34 33 34 39
46 47 49 46 39 38 39 40 41 42 44 48 49 48 47 46 44 41 38 38 38 37 38 39 38 35 35 35 35 34 32 32 31 30 32 31 29 30 29 27 27 26 24 22 21 23 23 22 26 29 26 24 28 31 33 32 28 28 29 29 29 28 23 20 19 19 15 8 3 4 11 13 15 21 23 22 29 30 27 26 27 29 32 33 33 35 38 42
45 48 51 47 41 39 40 41 45 46 49 51 51 48 47 46 46 43 39 39 40 39 39 39 38 38 38 37 37 36 33 33 35 35 36 38 36 32 30 29 30 28 26 25 24 24 24 25 31 34 33 35 39 39 36 34 32 31 30 30 30 30 25 16 12 20 27 19 10 6 13 23 28 30 32 35 38 36 29 26 27 30 33 35 36 38 41 45
46 50 51 47 43 41 41 45 48 48 49 51 50 47 46 46 45 43 41 41 40 41 40 40 40 40 41 41 40 38 36 36 40 38 38 40 38 35 35 35 36 35 31 28 29 29 27 27 33 38 39 41 42 40 37 37 35 32 31 32 30 29 31 23 12 18 24 22 22 20 17 34 47 43 41 43 40 34 29 27 29 32 35 36 38 40 43 46
48 50 49 47 46 44 43 47 50 50 51 52 49 47 46 45 45 44 43 42 42 42 41 41 42 41 42 42 40 39 37 38 42 43 42 42 40 38 37 37 36 35 32 30 29 28 26 25 31 36 38 39 40 39 40 40 37 36 36 37 34 33 37 35 29 29 22 16 22 17 13 34 47 41 40 43 36 29 27 29 32 33 37 38 40 44 44 44
48 48 49 49 49 48 48 51 53 53 53 52 49 49 47 46 47 47 45 45 44 42 41 42 43 43 43 42 40 40 38 37 40 41 37 35 37 37 37 38 37 36 34 31 30 28 26 25 26 23 21 25 26 24 25 30 32 35 37 35 35 37 36 34 37 34 25 28 31 15 14 39 43 34 40 41 33 31 30 33 36 36 39 42 43 44 44 45
47 48 50 51 51 51 53 54 53 52 53 51 50 51 50 50 51 50 47 47 47 44 43 43 44 44 44 42 41 41 41 42 42 40 37 35 37 40 40 39 38 36 35 33 33 33 32 33 31 22 12 13 18 17 20 27 29 31 34 32 33 35 33 34 35 28 22 33 37 26 29 50 45 35 44 46 39 39 38 39 43 42 42 44 44 45 47 50
47 50 52 52 52 54 57 55 52 53 53 51 51 54 55 55 55 52 49 48 48 46 46 47 47 45 44 43 43 44 48 49 45 44 43 42 42 42 41 40 39 37 35 34 34 34 35 39 40 36 32 33 38 40 39 40 39 38 38 37 33 30 32 35 33 32 33 31 35 44 49 54 52 45 48 50 46 45 46 46 47 46 44 45 47 48 51 51
49 54 57 54 50 50 55 56 54 55 53 51 54 57 57 57 54 51 50 49 48 47 46 48 48 48 47 46 45 48 52 49 46 46 46 44 43 42 42 43 42 40 39 38 37 36 38 43 46 45 46 51 54 51 48 47 48 49 46 43 38 31 33 40 41 46 43 25 31 59 56 47 55 55 49 50 49 47 47 47 45 45 46 48 51 52 51 46
53 57 59 57 52 51 54 55 54 52 50 50 53 55 56 56 53 50 49 47 46 45 45 47 50 51 50 46 45 49 51 45 43 45 44 42 41 41 42 44 42 41 40 39 40 40 40 45 49 47 48 55 55 52 52 50 50 53 51 44 41 38 38 43 49 55 48 35 45 66 55 46 57 57 49 48 47 45 44 44 46 48 50 53 53 50 45 39
56 58 58 57 57 57 58 57 54 51 49 48 50 54 57 56 54 52 48 45 45 47 47 50 53 51 48 46 46 51 52 45 41 44 43 40 40 41 42 42 40 40 39 39 42 41 40 46 50 46 48 56 56 52 52 50 49 56 56 48 46 49 46 46 52 55 50 51 63 66 59 61 62 58 57 54 49 51 50 49 51 52 51 51 46 41 37 35
64 65 62 58 59 59 58 57 55 56 56 53 54 60 59 55 55 54 49 48 51 53 52 52 53 50 48 49 50 55 55 49 45 47 44 40 41 42 41 41 41 40 40 41 41 38 40 45 48 46 45 53 57 51 49 48 47 53 56 51 48 50 49 50 54 54 51 57 64 61 61 66 58 52 55 54 50 53 51 49 50 48 45 43 39 36 34 34
67 65 60 57 58 59 58 59 58 58 59 61 63 63 59 58 59 55 52 54 56 56 54 53 53 51 50 51 54 57 56 50 48 48 45 42 44 43 43 44 43 42 44 44 41 41 42 45 49 44 38 45 52 44 40 40 39 46 59 58 52 52 55 57 57 56 56 59 58 56 58 57 49 44 46 47 46 47 45 44 45 42 41 39 36 34 33 35
64 61 58 56 57 58 58 59 57 58 63 67 66 62 60 61 59 53 54 57 56 55 54 54 54 52 52 55 57 57 53 49 48 46 43 43 44 44 45 46 46 47 48 47 45 47 46 46 50 42 31 36 42 36 32 28 21 34 56 58 48 48 52 54 55 56 57 57 56 54 54 51 46 42 44 43 43 42 41 42 42 41 40 38 35 34 33 35
Wind_Direction
215 220 230 240 244 239 250 272 304 327 337 342 345 347 351 353 356 359 4 7 9 11 9 8 6 6 7 9 14 18 31 46 45 54 59 49 39 34 29 27 26 22 20 18 15 11 4 0 356 359 6 3 358 353 341 15 155 175 184 192 195 200 204 229 247 261 278 281 286 293 295 296 300 301 289 250 261 279 281 280 283 286 289 291 293 299 308 314
249 254 260 266 272 274 274 278 289 305 319 328 332 336 339 342 347 351 357 2 5 8 9 8 6 6 7 8 14 18 26 41 40 51 53 38 31 27 24 22 18 10 8 9 8 5 1 358 355 355 3 3 353 359 18 41 149 185 190 205 217 215 205 227 254 272 284 285 285 285 284 286 290 287 259 235 244 269 279 278 282 286 289 290 293 300 306 310
263 268 272 275 278 281 282 284 288 296 308 318 324 327 330 335 340 344 350 355 359 4 7 8 6 6 8 8 13 17 21 35 34 42 44 32 25 22 21 17 9 358 355 360 2 2 0 356 357 351 348 356 356 14 49 27 322 228 235 231 235 221 209 228 257 274 280 279 277 275 278 281 284 276 250 235 236 256 272 274 277 282 284 284 287 294 301 307
268 274 278 281 282 284 286 287 289 293 300 310 317 321 324 328 333 339 344 348 352 357 4 9 7 6 8 8 11 17 20 26 27 33 37 30 21 19 19 12 4 355 352 357 358 357 357 355 358 350 345 352 352 16 41 5 336 296 278 251 244 228 218 231 252 266 270 270 272 274 280 281 278 268 258 248 238 248 264 268 273 276 276 275 279 288 299 308
268 274 278 282 285 286 288 288 290 292 295 302 309 315 319 323 327 333 338 342 346 350 358 6 8 6 8 9 11 17 22 23 23 26 29 23 16 15 13 7 2 359 359 358 354 353 356 356 356 350 350 352 346 5 13 342 337 315 294 282 262 242 237 245 250 257 260 263 268 274 279 278 274 269 267 261 248 252 262 266 270 273 273 273 278 287 298 307
269 274 278 282 285 287 289 291 292 292 294 298 303 309 313 318 322 326 333 337 340 345 350 359 6 6 7 10 10 14 19 18 20 18 18 16 10 8 6 4 2 1 1 356 351 352 356 357 356 353 356 355 346 357 356 331 330 315 303 305 269 254 275 277 263 261 261 263 267 272 274 277 282 277 273 268 262 264 267 269 271 271 271 272 278 288 299 307
271 274 278 282 286 289 291 293 294 295 296 298 301 307 310 315 319 323 328 333 336 340 344 350 1 5 5 9 10 10 10 7 11 8 4 4 0 359 358 0 2 358 352 349 348 350 354 356 357 357 359 2 354 350 347 326 319 315 313 320 296 276 287 287 274 270 265 263 265 267 276 288 291 284 281 276 272 274 274 275 274 272 272 275 284 294 303 309
274 276 278 282 285 289 292 295 297 298 299 301 303 306 310 314 317 321 324 329 332 334 339 343 352 0 1 5 8 5 1 2 3 358 354 352 350 350 351 354 357 352 344 342 345 350 353 354 358 359 359 5 0 346 341 328 318 325 326 317 305 289 289 284 274 271 264 257 254 270 293 295 289 284 283 278 278 281 280 279 278 277 279 283 293 301 306 308
276 277 279 281 284 288 290 293 295 297 299 301 303 306 310 313 316 320 322 326 329 330 333 337 342 353 356 358 3 358 354 359 357 351 347 342 342 344 343 346 348 345 341 341 345 350 352 352 356 358 358 1 356 346 343 339 328 329 322 312 304 295 295 284 272 269 257 243 239 286 309 294 286 281 273 273 278 282 283 283 283 283 286 292 299 302 305 307
279 280 281 282 284 286 287 290 292 295 297 299 302 305 308 312 315 318 321 323 325 326 328 331 334 341 349 349 350 350 347 351 351 347 342 338 336 337 338 339 340 339 338 340 344 348 350 352 354 355 356 355 351 348 348 349 337 325 316 308 299 292 296 288 281 278 255 241 245 292 309 296 289 276 266 272 278 281 284 286 285 287 292 297 301 303 306 308
283 283 284 284 285 285 286 287 289 293 296 299 301 303 306 310 313 316 319 322 323 324 324 327 328 329 339 338 330 337 338 338 340 340 337 335 332 331 333 334 334 334 336 340 344 347 351 352 352 352 353 350 346 347 348 348 336 322 314 307 297 292 291 287 291 293 267 255 267 294 304 301 293 278 272 274 276 278 281 283 286 290 295 299 303 305 307 308
286 286 287 286 286 286 286 286 288 292 295 299 301 302 305 307 310 313 316 319 319 321 321 322 324 322 327 328 319 319 321 321 327 334 335 331 328 326 328 330 332 333 335 340 344 348 350 351 350 349 349 344 344 348 349 348 337 322 314 307 302 297 290 292 299 296 284 279 288 299 305 309 298 279 274 271 270 272 275 280 286 290 294 299 304 306 307 308
288 289 288 288 288 287 286 287 288 291 294 298 301 303 304 306 308 310 312 316 317 317 318 319 320 318 318 318 314 305 297 304 311 323 329 327 323 324 327 329 330 332 334 339 346 348 349 350 348 346 346 342 341 346 348 348 340 324 315 309 307 301 292 296 299 295 294 293 298 303 306 309 293 273 269 266 266 267 271 279 284 288 291 298 303 306 307 308
290 290 289 289 289 289 289 290 290 293 295 297 301 303 304 306 307 309 311 314 315 315 315 317 317 316 314 310 310 301 284 290 296 309 324 323 321 324 327 326 325 328 331 337 345 347 348 348 346 346 344 341 344 345 343 348 344 319 308 304 300 298 297 295 295 298 297 295 299 301 304 303 284 269 268 265 265 267 272 277 280 284 289 298 304 307 307 306
291 291 291 290 290 291 291 292 293 294 296 297 300 302 304 305 306 308 311 312 314 314 313 316 316 314 313 309 309 300 281 279 279 291 315 322 322 323 325 323 320 324 329 336 341 344 348 347 348 351 346 341 345 340 339 349 346 313 297 283 271 279 295 301 300 300 296 292 293 294 295 293 282 278 275 268 266 268 271 275 279 286 293 301 305 306 305 304
291 291 291 291 291 292 293 294 295 295 297 298 300 303 304 305 307 309 310 312 313 313 313 315 315 314 313 309 309 302 282 273 271 279 302 320 322 321 324 324 321 322 326 332 336 338 344 349 352 355 347 338 337 334 337 344 342 317 289 269 263 270 289 301 302 300 296 292 291 287 283 282 280 280 280 277 273 272 273 277 284 292 299 303 305 305 304 303
289 290 291 291 292 293 294 295 295 296 297 299 301 304 305 306 307 309 310 312 313 314 315 315 314 314 311 308 307 302 284 276 274 273 284 307 319 316 320 325 321 319 323 329 331 332 341 350 353 353 346 336 333 329 328 331 331 319 290 275 274 277 285 292 295 296 292 287 285 280 278 283 281 277 280 280 276 274 275 280 286 292 297 300 301 301 301 300
286 288 289 291 293 294 295 296 297 297 298 300 303 304 307 308 309 310 311 312 312 313 311 311 313 312 309 306 303 298 287 280 273 263 270 292 311 314 317 324 321 318 323 326 325 327 338 348 349 350 347 338 330 321 316 319 319 312 301 292 289 289 289 291 294 293 287 282 279 274 275 282 282 280 281 280 277 276 278 281 285 288 292 295 296 296 295 295
282 285 288 290 292 294 295 296 298 298 299 301 304 306 308 309 309 309 309 309 309 310 309 308 309 307 304 303 300 294 286 280 268 254 263 281 299 312 315 319 319 318 320 321 323 327 334 341 343 345 343 336 322 310 307 308 307 305 303 298 296 296 294 297 298 291 285 280 277 275 275 278 280 281 280 277 276 275 276 278 280 284 287 288 288 289 289 288
281 284 287 289 291 293 295 297 298 299 300 302 303 305 306 306 307 305 303 305 307 308 307 306 305 303 301 300 298 292 285 279 263 252 260 272 290 306 310 315 318 317 317 319 324 324 326 333 337 337 335 329 316 308 305 304 303 302 300 298 298 295 295 303 302 291 285 277 274 275 273 274 278 280 278 274 273 273 274 275 278 282 283 282 282 283 285 285
280 284 287 288 291 293 294 296 299 300 301 302 304 305 307 308 308 307 304 305 308 308 306 306 305 303 302 298 293 288 280 273 259 249 255 267 285 298 305 314 317 316 316 318 320 318 319 326 330 330 328 323 316 310 304 302 300 299 300 300 298 294 297 306 300 286 281 273 272 274 272 274 277 277 274 273 273 274 274 275 278 280 279 279 280 282 284 285
280 283 285 288 290 292 294 296 298 301 302 303 305 306 308 309 309 309 308 306 306 308 308 308 306 305 303 296 288 281 272 265 253 244 251 264 281 292 300 311 314 313 313 314 316 315 316 320 324 325 323 320 316 310 304 302 300 299 301 298 294 296 300 302 296 283 277 274 275 278 278 279 281 278 272 269 269 269 271 274 276 277 277 276 278 280 280 282
280 282 285 287 289 291 293 295 297 300 302 303 305 307 308 309 309 310 310 309 307 308 309 308 309 308 302 293 285 275 265 256 243 242 252 264 280 289 295 306 311 312 311 313 315 312 313 318 320 320 318 317 315 310 306 302 301 301 300 294 292 297 296 294 294 285 276 275 279 284 285 283 282 278 270 264 263 263 267 270 272 273 273 273 275 277 278 279
280 282 284 286 289 291 293 294 297 299 301 303 304 306 307 308 309 309 311 311 308 308 309 309 311 308 300 293 285 269 256 247 240 244 254 267 282 289 294 304 310 311 311 312 313 309 311 314 314 314 315 315 313 310 306 301 302 302 298 293 293 296 292 291 293 287 281 279 282 290 291 287 283 277 269 263 261 263 266 266 267 268 269 272 275 277 279 280
279 281 283 286 289 291 292 294 296 298 300 302 303 305 306 308 309 310 313 313 310 310 309 309 310 304 297 298 286 268 254 247 244 249 259 272 283 287 293 303 309 311 310 310 309 307 310 314 314 314 314 312 309 308 306 303 301 300 299 296 294 296 295 294 294 290 287 287 291 300 297 291 289 278 269 264 262 265 266 265 265 266 268 271 275 277 279 280
278 280 283 285 288 290 292 293 295 297 298 300 302 303 305 307 308 311 315 315 311 310 309 307 304 297 298 297 283 272 260 251 251 258 266 276 283 287 295 302 307 309 307 306 307 306 311 315 313 312 310 307 307 309 310 306 300 298 301 302 299 298 298 297 295 290 287 290 296 296 282 282 287 279 273 271 270 268 265 264 264 264 267 270 273 276 277 280
277 279 282 284 286 289 290 291 293 294 297 298 300 302 303 306 308 312 317 318 309 308 307 299 295 294 294 287 276 274 265 259 260 262 270 279 284 288 293 299 305 306 304 303 301 303 311 312 310 309 304 301 306 311 311 304 298 297 301 304 301 300 299 297 294 288 288 291 290 283 271 272 279 277 276 274 269 265 261 262 262 262 265 268 271 274 276 279
276 278 281 283 285 286 287 290 291 293 295 296 297 300 301 303 306 313 318 322 304 304 298 290 291 290 284 274 271 269 265 268 267 269 279 285 287 289 292 298 304 303 302 299 293 300 309 306 306 304 298 300 308 310 307 301 298 297 299 299 296 297 296 294 293 290 292 292 283 278 266 260 271 274 277 272 261 262 263 262 261 262 265 268 270 274 277 279
275 278 280 281 283 284 285 287 289 291 292 293 295 297 297 300 305 310 312 273 293 294 288 287 287 282 276 269 267 265 263 264 268 279 287 287 287 290 292 298 302 300 298 295 292 301 306 302 302 298 294 300 305 305 302 300 298 296 296 295 294 296 295 295 294 288 288 279 271 275 259 236 268 269 262 259 260 268 271 264 261 263 266 269 271 275 276 277
274 276 278 279 281 282 283 285 286 288 289 290 292 292 293 296 300 304 247 264 285 284 283 285 281 276 273 266 260 257 257 263 275 285 287 285 286 290 293 299 301 296 293 292 293 299 300 297 298 296 295 300 302 303 303 301 300 297 295 293 293 295 294 292 286 280 282 265 267 276 258 239 267 273 258 262 273 280 277 264 261 265 267 268 272 274 274 275
273 275 275 277 278 279 281 282 282 284 285 287 288 288 289 290 286 229 208 282 287 282 281 280 274 268 261 250 244 246 258 275 283 285 285 285 285 288 293 297 297 295 294 293 296 299 297 296 298 297 297 300 300 300 300 300 300 295 290 291 296 300 297 287 274 264 249 262 274 279 255 233 235 258 270 280 284 282 276 268 267 268 267 268 273 274 272 275
271 272 274 275 276 277 278 278 280 281 282 283 283 281 280 277 244 222 253 281 285 278 277 276 271 261 241 231 239 255 272 282 284 284 284 286 286 288 291 291 292 295 294 295 300 300 296 296 297 295 294 294 294 296 299 301 299 291 283 287 298 313 313 281 247 239 223 255 270 265 248 239 244 259 271 278 280 278 275 273 271 269 268 272 275 274 274 276
269 271 272 273 274 275 275 276 277 277 278 278 276 275 268 247 233 247 261 270 269 274 277 275 271 260 244 248 258 270 279 283 284 284 285 285 285 286 288 289 290 287 285 292 298 297 297 299 295 292 290 286 287 294 300 303 299 289 277 275 274 300 336 290 245 267 257 260 267 264 265 261 259 265 271 270 271 273 274 274 273 271 272 276 275 274 274 276
268 269 269 270 272 272 273 273 273 274 274 272 270 264 239 222 248 261 266 269 270 275 276 276 273 263 257 262 267 274 280 283 283 283 284 282 281 283 286 289 289 284 281 286 290 288 289 292 291 293 288 283 292 296 299 301 296 286 274 262 246 234 239 255 244 251 284 291 282 267 259 255 259 268 271 269 268 267 270 272 270 269 271 273 272 271 272 275
266 266 267 268 268 269 270 270 270 270 268 266 262 245 225 233 253 262 268 273 272 272 272 273 271 266 266 268 270 276 278 279 281 282 281 278 279 283 286 287 284 279 275 275 283 285 281 283 290 293 288 288 295 294 292 294 290 279 266 246 247 252 244 246 258 263 283 304 285 248 243 254 262 270 271 273 273 268 268 268 264 264 267 267 267 268 269 273
265 265 265 266 266 267 267 266 268 267 264 262 250 232 236 250 260 263 269 272 269 267 268 267 266 266 269 270 271 274 276 277 279 280 277 277 280 282 281 282 279 274 271 271 277 282 282 287 291 291 291 291 292 289 284 283 281 271 259 253 262 269 256 248 266 280 281 295 275 251 256 263 265 273 273 272 271 269 267 265 262 263 264 263 264 266 268 272
263 264 264 263 264 265 265 265 265 262 261 256 243 239 250 260 263 265 268 267 265 265 264 261 263 264 263 264 269 274 277 278 277 275 275 278 282 279 277 281 279 276 282 280 272 270 276 285 289 289 289 288 285 284 278 276 276 268 261 267 272 270 258 244 254 317 280 269 272 255 261 266 256 261 270 267 268 272 271 266 265 265 263 264 264 263 267 274
262 263 262 262 262 263 264 262 260 260 258 250 244 247 255 260 265 268 267 264 263 263 261 258 260 262 261 263 270 276 277 274 271 270 275 278 278 277 278 283 284 285 290 284 270 265 273 285 290 288 284 285 282 275 272 273 274 266 261 265 262 254 253 230 209 271 248 261 279 262 268 265 246 248 267 271 273 276 275 271 270 270 268 266 264 263 271 282
261 262 262 262 260 259 260 260 258 256 251 246 245 249 255 262 269 270 267 265 262 259 257 258 261 261 261 265 271 275 275 272 270 270 274 274 270 273 278 281 286 290 291 283 269 267 270 277 287 286 280 280 272 264 270 275 274 266 257 254 250 251 254 242 226 218 207 253 275 285 294 271 256 265 273 276 281 281 278 276 276 276 273 267 265 270 281 290
260 261 262 262 258 256 257 257 255 251 248 249 251 253 259 266 270 269 267 266 262 258 258 261 262 259 261 266 269 272 272 270 270 269 269 268 266 273 279 282 286 289 288 280 269 267 264 258 269 278 275 269 271 275 282 284 278 266 255 247 247 248 245 247 247 233 227 245 267 297 287 262 260 278 276 277 287 285 281 281 279 276 270 266 270 278 285 295
260 259 261 262 258 256 255 252 252 251 250 252 254 256 261 265 267 268 267 264 261 259 259 260 260 259 263 265 266 268 267 267 270 269 267 267 267 271 278 285 289 289 283 276 269 267 264 257 262 269 268 269 279 285 284 281 276 268 260 255 255 253 242 242 258 242 235 233 221 233 271 269 269 276 277 280 285 284 282 281 276 270 267 268 276 283 290 300
258 259 262 263 260 257 253 252 253 252 251 253 256 259 263 264 265 267 266 262 259 258 258 256 255 257 262 264 265 266 265 267 271 268 266 269 270 273 280 287 288 284 280 275 272 271 267 261 260 264 268 273 280 282 278 277 275 267 262 257 256 252 241 232 235 248 241 231 233 239 259 274 275 275 279 283 285 285 282 277 271 268 270 274 281 289 297 303
258 260 263 263 261 257 252 251 252 250 252 256 259 260 260 260 263 264 262 258 257 255 253 253 255 258 263 265 264 265 265 268 271 269 268 271 273 276 282 285 284 280 276 272 273 271 263 254 255 264 272 275 275 274 273 273 268 262 261 259 255 252 248 242 240 251 252 232 234 239 252 269 272 275 280 284 284 282 278 275 274 273 276 281 288 294 300 303
258 260 261 260 258 255 251 251 252 253 256 258 259 259 259 259 261 261 259 256 256 253 250 254 259 262 265 265 264 264 265 265 269 272 271 270 274 279 282 282 281 277 274 273 275 273 264 255 253 262 282 286 278 272 267 265 264 263 264 262 259 256 250 245 244 248 253 249 243 233 253 264 266 270 276 280 280 278 278 277 277 278 281 286 292 295 299 302
256 256 257 256 254 252 251 252 253 256 258 258 259 261 261 260 260 259 258 257 256 253 253 258 263 263 264 264 263 264 263 262 264 268 269 269 275 281 282 281 279 277 276 276 275 273 268 262 255 248 257 275 273 274 277 279 280 274 268 265 261 254 245 243 243 235 239 253 247 230 247 263 264 264 272 276 276 276 278 279 279 282 285 289 292 294 297 301
252 252 253 251 250 251 252 253 252 252 254 256 258 261 261 259 260 260 258 256 255 253 255 260 262 260 259 259 259 262 264 263 261 262 266 271 276 281 281 280 278 277 277 276 273 270 265 262 261 254 250 258 267 274 279 281 281 277 276 275 267 256 249 244 236 231 237 247 250 248 252 261 264 264 268 272 274 275 277 279 281 283 285 287 289 292 296 299
248 250 251 250 248 250 253 253 250 250 254 255 256 260 261 260 261 259 256 254 254 255 257 259 259 255 254 255 257 263 267 263 258 259 267 272 276 278 279 278 277 277 277 275 271 266 259 262 267 262 260 268 273 275 274 273 272 272 273 274 269 263 255 240 232 243 246 234 254 264 261 259 265 270 269 270 274 277 277 278 278 279 281 284 287 292 295 296
250 251 253 251 249 250 253 255 256 257 257 255 254 259 260 259 258 255 255 256 256 255 254 254 256 255 254 257 260 263 265 258 254 260 267 272 276 277 277 277 277 277 277 274 269 264 257 263 272 268 267 275 277 274 273 269 268 270 268 266 266 263 255 244 242 251 248 232 254 270 269 263 268 274 273 272 275 276 275 274 274 276 279 283 288 292 293 292
251 252 253 251 251 253 256 259 260 259 258 255 255 258 257 256 254 254 255 255 254 255 253 253 259 258 257 262 262 260 260 253 255 267 272 274 278 277 276 277 277 277 277 273 269 265 256 262 273 269 266 275 277 274 274 270 267 269 266 261 261 260 255 251 253 257 251 245 256 267 268 268 273 276 273 273 275 272 273 274 274 278 281 285 290 290 290 292
251 252 256 256 256 258 258 256 255 256 257 255 252 255 255 254 255 254 252 253 258 260 255 255 263 265 266 270 265 262 264 261 264 275 278 276 277 276 275 277 277 277 276 271 268 263 256 261 271 267 264 274 278 274 272 269 267 269 268 262 258 257 256 253 254 257 251 251 260 263 261 267 281 285 276 274 274 271 273 276 276 280 283 286 290 288 288 292
250 251 253 253 255 257 255 255 254 253 255 253 251 254 254 255 259 258 256 261 264 262 258 262 271 273 270 268 263 264 270 270 271 279 280 275 275 276 276 277 277 275 273 271 269 266 260 260 266 265 259 268 274 273 271 271 269 269 269 265 255 252 256 256 257 260 254 252 259 258 255 268 290 295 284 279 277 275 276 278 278 281 283 285 288 287 288 291
245 245 246 246 249 252 253 254 252 249 253 256 255 256 258 260 264 260 257 261 263 261 263 270 274 269 262 260 264 271 276 274 273 277 275 272 273 275 274 275 276 274 271 270 269 269 265 262 264 262 251 258 268 268 268 274 278 270 270 271 266 260 261 260 260 264 261 255 255 256 263 281 293 288 281 280 279 278 279 279 278 281 283 284 286 286 286 290
Height
3203 3203 3203 3202 3202 3202 3202 3201 3201 3200 3200 3199 3198 3198 3197 3196 3195 3194 3192 3191 3189 3187 3185 3183 3181 3179 3177 3176 3175 3174 3173 3173 3172 3172 3171 3171 3171 3170 3170 3169 3169 3168 3168 3167 3166 3166 3165 3164 3163 3162 3162 3161 3161 3160 3159 3159 3159 3159 3158 3158 3158 3158 3158 3158 3157 3157 3156 3155 3154 3154 3153 3152 3153 3152 3151 3148 3145 3145 3144 3143 3144 3145 3145 3145 3144 3144 3143 3143
3203 3203 3203 3202 3202 3202 3201 3201 3201 3200 3200 3199 3198 3198 3197 3196 3195 3194 3193 3191 3190 3188 3186 3184 3182 3180 3178 3176 3175 3175 3174 3173 3173 3172 3172 3171 3171 3170 3170 3169 3169 3169 3168 3167 3167 3166 3164 3163 3162 3161 3160 3160 3160 3159 3158 3158 3158 3158 3158 3158 3158 3158 3158 3158 3157 3156 3156 3155 3155 3154 3152 3151 3152 3152 3150 3147 3144 3144 3143 3142 3143 3143 3143 3143 3142 3142 3142 3142
3202 3202 3202 3202 3202 3201 3201 3200 3200 3200 3199 3199 3198 3197 3196 3195 3194 3194 3193 3191 3190 3188 3186 3184 3182 3180 3179 3177 3176 3175 3175 3174 3173 3173 3172 3171 3171 3170 3170 3169 3169 3169 3168 3168 3167 3165 3164 3163 3161 3160 3159 3159 3158 3158 3157 3157 3157 3157 3157 3157 3158 3158 3158 3158 3156 3156 3155 3155 3154 3153 3152 3151 3151 3150 3148 3146 3145 3143 3142 3141 3141 3142 3143 3142 3141 3141 3141 3140
3202 3202 3202 3202 3201 3201 3200 3200 3199 3199 3198 3198 3197 3196 3196 3195 3194 3193 3192 3191 3190 3188 3187 3185 3183 3181 3179 3178 3177 3176 3175 3174 3174 3173 3172 3171 3171 3170 3170 3169 3169 3168 3168 3167 3166 3165 3164 3163 3162 3160 3159 3158 3157 3156 3156 3157 3157 3156 3156 3156 3157 3157 3157 3158 3156 3155 3154 3153 3153 3152 3151 3150 3149 3148 3147 3145 3144 3143 3142 3141 3141 3142 3142 3141 3141 3140 3139 3137
3201 3201 3201 3201 3200 3200 3200 3199 3198 3198 3197 3197 3196 3196 3195 3194 3193 3193 3192 3191 3190 3188 3187 3185 3183 3181 3180 3178 3177 3176 3175 3175 3174 3173 3172 3171 3171 3170 3169 3169 3168 3168 3167 3167 3166 3165 3164 3162 3161 3160 3158 3157 3156 3155 3155 3155 3155 3155 3155 3155 3156 3156 3156 3157 3155 3154 3153 3152 3151 3151 3150 3148 3146 3146 3146 3144 3143 3143 3142 3141 3141 3142 3141 3140 3140 3139 3137 3135
3200 3200 3199 3199 3199 3199 3199 3198 3198 3197 3196 3196 3196 3195 3194 3194 3193 3192 3191 3190 3189 3188 3186 3185 3183 3181 3180 3179 3177 3176 3176 3175 3174 3173 3172 3171 3171 3170 3169 3168 3168 3167 3167 3166 3165 3164 3163 3161 3160 3159 3158 3156 3155 3155 3155 3154 3154 3154 3154 3154 3154 3154 3155 3154 3153 3152 3152 3151 3150 3149 3148 3146 3144 3144 3144 3143 3142 3141 3141 3140 3141 3141 3140 3139 3138 3137 3136 3134
3199 3198 3198 3198 3198 3198 3198 3197 3197 3196 3195 3195 3194 3194 3193 3193 3192 3191 3190 3190 3189 3187 3186 3185 3183 3182 3180 3179 3178 3177 3176 3175 3174 3173 3172 3171 3170 3170 3169 3168 3167 3167 3166 3165 3164 3163 3161 3160 3159 3158 3157 3156 3155 3154 3154 3153 3153 3153 3153 3153 3153 3153 3153 3152 3151 3150 3150 3150 3149 3148 3147 3145 3143 3140 3141 3141 3141 3140 3139 3139 3139 3139 3138 3137 3137 3135 3133 3131
3197 3197 3197 3197 3197 3197 3197 3196 3196 3195 3194 3193 3193 3193 3192 3191 3191 3190 3189 3189 3188 3187 3186 3184 3183 3181 3180 3179 3178 3177 3176 3175 3174 3173 3172 3171 3170 3169 3169 3168 3167 3167 3166 3165 3163 3161 3160 3159 3158 3156 3156 3155 3154 3154 3153 3152 3151 3151 3151 3151 3151 3151 3150 3150 3149 3149 3149 3148 3147 3147 3146 3145 3141 3138 3138 3139 3139 3139 3138 3137 3137 3137 3136 3135 3134 3133 3131 3128
3196 3196 3196 3196 3195 3195 3195 3195 3194 3194 3193 3192 3192 3191 3191 3190 3190 3189 3188 3187 3187 3186 3185 3184 3182 3181 3180 3179 3178 3176 3175 3175 3174 3173 3172 3171 3170 3169 3169 3168 3167 3166 3165 3164 3162 3161 3159 3158 3157 3156 3155 3154 3154 3153 3152 3152 3150 3150 3150 3149 3149 3149 3148 3148 3148 3147 3147 3146 3146 3146 3145 3143 3139 3137 3136 3136 3137 3137 3136 3135 3135 3134 3133 3132 3131 3130 3128 3126
3195 3195 3195 3194 3194 3194 3194 3193 3193 3193 3192 3191 3190 3190 3190 3189 3189 3188 3187 3186 3185 3185 3183 3183 3182 3180 3179 3178 3177 3176 3175 3174 3173 3173 3172 3171 3170 3169 3168 3167 3166 3166 3164 3163 3162 3160 3159 3157 3156 3155 3154 3154 3153 3152 3152 3151 3150 3149 3148 3147 3147 3146 3146 3146 3146 3146 3145 3145 3145 3145 3144 3141 3137 3134 3134 3134 3135 3135 3134 3133 3132 3131 3130 3129 3128 3127 3125 3123
3194 3194 3193 3193 3193 3192 3192 3192 3192 3191 3191 3190 3190 3189 3188 3188 3187 3186 3186 3185 3184 3183 3182 3181 3180 3179 3178 3177 3176 3175 3174 3174 3173 3172 3171 3170 3170 3169 3168 3167 3166 3165 3164 3162 3161 3160 3158 3157 3156 3155 3154 3153 3152 3152 3151 3150 3149 3148 3147 3146 3145 3145 3145 3145 3145 3144 3144 3144 3143 3143 3142 3140 3135 3131 3130 3133 3134 3133 3132 3130 3128 3127 3127 3126 3125 3123 3122 3120
3192 3192 3192 3192 3191 3191 3190 3190 3190 3190 3189 3189 3188 3187 3187 3186 3185 3185 3184 3183 3182 3182 3181 3180 3179 3178 3177 3176 3175 3174 3174 3173 3172 3171 3170 3170 3169 3168 3168 3167 3166 3164 3163 3162 3160 3159 3157 3156 3155 3154 3153 3152 3151 3151 3150 3149 3148 3146 3145 3145 3144 3143 3143 3143 3143 3142 3142 3142 3142 3141 3139 3137 3133 3128 3128 3130 3130 3130 3129 3126 3125 3124 3123 3123 3121 3120 3119 3117
3191 3191 3191 3190 3190 3189 3189 3189 3188 3188 3187 3187 3186 3186 3185 3185 3184 3183 3182 3182 3181 3180 3179 3178 3177 3176 3175 3175 3174 3173 3173 3172 3171 3171 3170 3169 3168 3167 3167 3166 3165 3163 3162 3161 3159 3158 3157 3155 3154 3153 3152 3151 3150 3150 3149 3148 3147 3145 3144 3143 3142 3142 3141 3141 3141 3140 3140 3140 3139 3138 3136 3133 3130 3126 3127 3128 3127 3127 3125 3123 3122 3121 3120 3120 3119 3118 3116 3114
3189 3189 3189 3189 3188 3188 3187 3187 3186 3186 3186 3185 3185 3184 3184 3183 3182 3182 3181 3180 3179 3178 3177 3177 3175 3174 3174 3173 3173 3172 3171 3171 3170 3169 3169 3168 3167 3166 3165 3164 3163 3162 3161 3160 3158 3157 3156 3155 3153 3152 3150 3149 3149 3149 3148 3147 3146 3145 3143 3142 3140 3140 3139 3139 3139 3138 3137 3137 3137 3136 3133 3130 3127 3125 3125 3126 3125 3124 3122 3120 3118 3118 3117 3117 3116 3114 3112 3110
3188 3188 3188 3187 3187 3186 3186 3185 3185 3184 3184 3184 3183 3183 3182 3181 3181 3180 3179 3179 3178 3177 3175 3175 3174 3173 3172 3172 3171 3170 3170 3169 3169 3168 3167 3166 3166 3165 3164 3163 3162 3161 3160 3158 3157 3156 3155 3154 3152 3151 3149 3147 3147 3147 3146 3146 3145 3144 3143 3141 3140 3138 3138 3136 3136 3136 3134 3134 3135 3134 3132 3129 3126 3124 3124 3123 3122 3121 3119 3117 3115 3114 3113 3112 3111 3109 3108 3107
3186 3186 3186 3185 3185 3184 3184 3184 3183 3183 3182 3182 3182 3181 3180 3179 3179 3178 3178 3177 3176 3175 3174 3173 3172 3171 3170 3169 3169 3169 3168 3167 3167 3167 3166 3165 3164 3163 3163 3162 3161 3160 3158 3157 3156 3154 3153 3152 3151 3149 3148 3146 3146 3145 3145 3144 3144 3143 3142 3141 3139 3138 3136 3135 3134 3133 3132 3132 3131 3131 3130 3128 3126 3124 3123 3122 3120 3119 3116 3114 3112 3111 3109 3108 3107 3106 3105 3103
3184 3184 3184 3183 3183 3182 3182 3181 3181 3181 3180 3180 3179 3179 3179 3178 3177 3177 3176 3175 3174 3173 3172 3171 3170 3169 3168 3168 3167 3167 3166 3166 3165 3165 3164 3164 3163 3162 3161 3160 3159 3158 3157 3156 3154 3153 3152 3150 3149 3148 3146 3145 3145 3144 3143 3142 3142 3142 3141 3140 3139 3137 3136 3134 3133 3132 3131 3130 3129 3127 3127 3126 3124 3123 3121 3119 3118 3116 3114 3112 3110 3109 3107 3106 3105 3104 3102 3100
3182 3182 3181 3181 3181 3180 3180 3179 3179 3178 3178 3178 3177 3177 3176 3175 3175 3174 3173 3173 3172 3171 3170 3169 3168 3167 3166 3166 3165 3165 3164 3163 3163 3163 3163 3162 3161 3160 3159 3158 3157 3156 3155 3154 3152 3151 3150 3149 3147 3147 3145 3144 3143 3143 3142 3141 3141 3140 3139 3138 3136 3135 3133 3132 3131 3130 3128 3127 3126 3125 3124 3123 3122 3120 3118 3116 3115 3113 3111 3110 3108 3107 3106 3104 3103 3102 3100 3099
3180 3180 3179 3179 3178 3178 3177 3177 3176 3175 3175 3175 3175 3174 3174 3173 3172 3172 3171 3171 3170 3170 3168 3167 3166 3165 3164 3164 3163 3163 3162 3161 3161 3161 3161 3160 3159 3158 3157 3156 3155 3154 3153 3151 3150 3148 3147 3147 3146 3145 3144 3143 3142 3142 3141 3140 3139 3138 3137 3135 3134 3132 3130 3130 3129 3127 3126 3124 3122 3122 3121 3121 3119 3117 3115 3113 3111 3110 3107 3106 3105 3103 3102 3101 3100 3099 3098 3096
3177 3177 3177 3176 3176 3175 3175 3174 3174 3173 3172 3172 3172 3172 3171 3170 3170 3169 3169 3169 3168 3167 3167 3165 3164 3163 3162 3161 3160 3159 3159 3158 3158 3158 3158 3158 3157 3156 3155 3154 3153 3152 3151 3149 3148 3146 3145 3145 3144 3143 3142 3141 3140 3139 3138 3137 3136 3135 3134 3133 3131 3129 3127 3127 3126 3124 3123 3121 3119 3119 3118 3118 3117 3115 3112 3109 3107 3105 3103 3102 3100 3098 3097 3096 3096 3095 3093 3092
3174 3175 3174 3174 3173 3173 3172 3172 3171 3170 3170 3169 3169 3168 3168 3167 3166 3165 3165 3166 3166 3165 3164 3163 3162 3160 3159 3158 3157 3156 3155 3155 3155 3156 3156 3155 3155 3154 3153 3152 3151 3150 3149 3147 3146 3145 3144 3143 3142 3141 3140 3139 3138 3137 3136 3135 3134 3133 3131 3130 3128 3126 3124 3124 3123 3121 3121 3118 3115 3116 3115 3113 3114 3113 3110 3105 3102 3100 3098 3097 3095 3093 3092 3091 3091 3090 3089 3088
3172 3172 3171 3171 3170 3170 3169 3169 3169 3168 3167 3166 3166 3165 3165 3164 3163 3162 3161 3161 3162 3161 3160 3159 3158 3157 3156 3154 3153 3153 3152 3152 3153 3153 3153 3153 3153 3152 3151 3150 3148 3148 3146 3145 3144 3143 3142 3141 3140 3139 3138 3137 3136 3134 3133 3132 3132 3130 3129 3127 3124 3123 3121 3120 3120 3119 3118 3115 3112 3112 3109 3107 3108 3108 3105 3100 3098 3096 3094 3092 3090 3088 3087 3086 3086 3086 3085 3084
3168 3168 3169 3168 3167 3167 3166 3166 3166 3165 3165 3164 3163 3163 3162 3161 3161 3160 3159 3157 3157 3158 3156 3155 3154 3153 3152 3150 3150 3150 3149 3149 3150 3151 3151 3150 3150 3149 3148 3147 3146 3145 3144 3143 3142 3140 3139 3138 3137 3136 3135 3135 3133 3132 3130 3129 3128 3127 3126 3124 3121 3121 3120 3117 3117 3116 3115 3113 3109 3107 3102 3098 3100 3099 3097 3096 3093 3092 3090 3087 3086 3084 3083 3082 3082 3081 3080 3079
3165 3165 3165 3165 3165 3164 3164 3163 3163 3163 3162 3161 3161 3160 3160 3159 3158 3157 3156 3154 3153 3154 3153 3151 3150 3149 3148 3148 3147 3147 3147 3148 3148 3148 3149 3148 3147 3147 3146 3145 3144 3142 3141 3140 3140 3138 3137 3136 3135 3134 3133 3132 3131 3129 3128 3126 3125 3124 3123 3121 3118 3118 3118 3115 3114 3113 3111 3110 3108 3105 3095 3087 3090 3092 3090 3091 3088 3087 3086 3082 3081 3080 3078 3078 3077 3077 3076 3074
3162 3162 3162 3162 3162 3161 3161 3160 3160 3160 3159 3159 3158 3158 3157 3156 3155 3154 3153 3151 3150 3151 3150 3148 3147 3146 3146 3146 3146 3146 3145 3146 3146 3146 3146 3146 3145 3144 3143 3142 3141 3140 3138 3137 3137 3135 3134 3134 3132 3131 3130 3129 3128 3127 3126 3124 3122 3121 3120 3119 3117 3116 3115 3113 3112 3110 3106 3104 3104 3106 3095 3080 3080 3086 3085 3085 3085 3083 3081 3078 3077 3076 3074 3074 3074 3073 3072 3070
3159 3159 3159 3159 3159 3158 3158 3157 3158 3157 3157 3156 3156 3155 3155 3154 3153 3152 3151 3149 3147 3147 3147 3146 3145 3145 3145 3144 3144 3144 3144 3144 3144 3144 3144 3143 3143 3142 3141 3139 3138 3137 3135 3134 3134 3132 3131 3131 3129 3128 3127 3127 3126 3124 3124 3122 3120 3117 3116 3116 3115 3113 3112 3111 3110 3108 3103 3100 3100 3103 3098 3082 3075 3079 3081 3081 3081 3079 3077 3074 3073 3073 3072 3071 3071 3070 3069 3068
3155 3155 3156 3156 3156 3155 3154 3154 3155 3154 3154 3154 3153 3153 3152 3152 3151 3150 3149 3147 3143 3143 3144 3143 3143 3143 3143 3143 3143 3143 3142 3142 3142 3142 3142 3141 3140 3140 3138 3137 3135 3134 3132 3131 3130 3129 3129 3128 3127 3126 3124 3124 3123 3122 3121 3120 3118 3115 3112 3113 3112 3110 3109 3107 3107 3105 3100 3097 3096 3097 3099 3088 3073 3072 3076 3077 3077 3075 3072 3071 3070 3069 3069 3068 3068 3067 3066 3065
3152 3152 3152 3152 3152 3152 3151 3151 3152 3151 3151 3150 3150 3150 3149 3149 3149 3148 3149 3147 3140 3139 3140 3141 3140 3140 3140 3141 3141 3141 3140 3139 3140 3139 3139 3139 3138 3137 3136 3135 3134 3131 3129 3128 3126 3126 3126 3124 3123 3123 3121 3121 3121 3120 3118 3117 3116 3113 3111 3110 3109 3108 3106 3104 3103 3101 3098 3096 3089 3087 3096 3090 3070 3067 3073 3073 3072 3070 3067 3067 3066 3065 3066 3065 3064 3064 3063 3062
3148 3148 3148 3149 3148 3149 3148 3148 3148 3148 3147 3147 3147 3147 3146 3147 3147 3147 3149 3146 3138 3135 3137 3138 3138 3137 3138 3138 3138 3138 3137 3137 3138 3137 3136 3136 3134 3134 3133 3132 3130 3128 3126 3124 3121 3122 3122 3121 3120 3119 3118 3118 3118 3117 3116 3115 3113 3111 3110 3107 3106 3105 3103 3102 3100 3097 3097 3094 3083 3082 3091 3087 3069 3062 3068 3070 3067 3065 3064 3063 3062 3062 3063 3061 3060 3060 3059 3058
3144 3144 3144 3145 3144 3145 3145 3145 3145 3144 3144 3144 3144 3143 3144 3145 3145 3146 3147 3142 3134 3132 3134 3134 3134 3134 3134 3135 3135 3135 3135 3135 3135 3134 3133 3132 3131 3131 3130 3128 3127 3124 3123 3121 3118 3118 3118 3117 3117 3116 3115 3114 3114 3114 3112 3112 3111 3109 3108 3105 3104 3103 3100 3100 3097 3096 3096 3088 3079 3080 3085 3084 3072 3059 3061 3064 3062 3061 3060 3059 3059 3059 3058 3057 3057 3057 3055 3054
3139 3139 3140 3140 3140 3141 3141 3141 3141 3141 3140 3140 3140 3140 3141 3142 3143 3145 3142 3136 3132 3130 3130 3130 3130 3130 3131 3132 3133 3133 3132 3132 3132 3131 3130 3129 3128 3127 3127 3126 3124 3120 3118 3118 3116 3114 3114 3113 3113 3111 3111 3111 3110 3110 3110 3109 3108 3107 3106 3103 3102 3100 3098 3097 3094 3095 3095 3084 3077 3079 3080 3082 3072 3056 3056 3059 3057 3057 3057 3055 3056 3055 3054 3054 3054 3052 3051 3051
3134 3134 3135 3136 3136 3137 3137 3137 3137 3137 3137 3137 3137 3136 3138 3139 3139 3138 3135 3133 3131 3127 3126 3128 3127 3127 3128 3129 3129 3130 3129 3128 3128 3128 3127 3125 3123 3123 3125 3124 3123 3119 3114 3112 3112 3110 3108 3109 3109 3108 3107 3108 3108 3107 3107 3106 3105 3104 3104 3103 3102 3099 3097 3095 3093 3092 3089 3080 3076 3078 3078 3075 3063 3053 3056 3057 3053 3053 3053 3052 3053 3052 3051 3051 3050 3049 3047 3047
3129 3130 3131 3131 3131 3133 3133 3133 3133 3133 3133 3133 3133 3132 3134 3136 3132 3129 3130 3131 3129 3124 3123 3125 3124 3125 3126 3126 3126 3126 3125 3124 3124 3124 3122 3120 3118 3118 3121 3121 3121 3119 3114 3110 3109 3106 3102 3103 3104 3104 3104 3105 3105 3105 3104 3102 3102 3101 3101 3102 3102 3101 3099 3094 3091 3087 3082 3077 3075 3077 3076 3067 3054 3051 3054 3053 3052 3052 3050 3050 3050 3048 3049 3049 3047 3046 3044 3043
3124 3125 3125 3126 3127 3128 3129 3129 3129 3129 3129 3129 3128 3129 3130 3128 3124 3123 3125 3125 3125 3122 3121 3121 3121 3122 3122 3121 3122 3122 3122 3120 3119 3119 3118 3116 3114 3114 3116 3117 3117 3117 3114 3111 3107 3104 3101 3098 3099 3100 3100 3100 3101 3101 3101 3100 3099 3097 3097 3099 3098 3099 3099 3092 3087 3084 3078 3074 3073 3075 3072 3059 3049 3048 3049 3049 3050 3049 3049 3048 3047 3046 3047 3046 3044 3042 3041 3040
3119 3119 3120 3121 3122 3123 3125 3125 3124 3125 3125 3124 3124 3123 3121 3119 3118 3119 3120 3119 3121 3120 3118 3118 3117 3117 3117 3116 3117 3118 3119 3116 3114 3114 3113 3111 3110 3110 3111 3112 3113 3113 3112 3110 3106 3103 3099 3094 3095 3096 3096 3096 3097 3097 3098 3097 3096 3094 3094 3095 3093 3093 3094 3089 3084 3081 3080 3075 3068 3065 3060 3049 3045 3045 3044 3047 3046 3044 3046 3044 3043 3044 3044 3043 3041 3039 3038 3038
3113 3113 3115 3116 3117 3119 3120 3120 3120 3120 3119 3119 3118 3113 3110 3111 3114 3116 3115 3115 3117 3116 3116 3115 3114 3114 3112 3111 3112 3113 3114 3113 3110 3110 3108 3107 3106 3105 3106 3107 3108 3109 3109 3108 3105 3102 3097 3091 3090 3092 3092 3093 3093 3093 3094 3094 3094 3092 3090 3090 3089 3089 3089 3087 3082 3079 3082 3078 3062 3053 3050 3044 3043 3042 3038 3041 3040 3038 3040 3038 3039 3041 3039 3038 3037 3035 3035 3035
3107 3107 3109 3110 3112 3114 3114 3115 3115 3115 3114 3113 3108 3102 3102 3105 3109 3112 3112 3111 3112 3113 3113 3112 3111 3110 3108 3107 3108 3109 3110 3109 3107 3106 3105 3103 3101 3099 3100 3103 3104 3105 3105 3105 3103 3101 3097 3089 3086 3088 3089 3088 3089 3090 3089 3089 3090 3088 3086 3086 3086 3086 3085 3085 3083 3080 3082 3077 3058 3046 3045 3040 3039 3038 3033 3033 3034 3033 3034 3033 3034 3036 3034 3033 3032 3030 3031 3030
3101 3101 3102 3105 3108 3109 3109 3109 3109 3109 3108 3105 3098 3096 3097 3099 3103 3107 3108 3107 3107 3108 3109 3108 3106 3105 3104 3104 3104 3104 3106 3104 3103 3103 3102 3100 3097 3094 3096 3098 3099 3100 3101 3101 3100 3098 3097 3089 3082 3082 3085 3084 3085 3086 3084 3084 3084 3083 3082 3083 3084 3084 3082 3081 3082 3079 3079 3074 3056 3044 3042 3034 3030 3032 3029 3027 3029 3029 3029 3028 3030 3030 3029 3027 3026 3026 3027 3025
3095 3094 3094 3099 3104 3104 3103 3103 3103 3103 3100 3094 3091 3091 3091 3093 3098 3102 3103 3103 3103 3104 3102 3101 3102 3101 3099 3099 3100 3100 3101 3099 3098 3099 3098 3095 3092 3090 3092 3095 3096 3096 3097 3097 3096 3095 3095 3091 3081 3077 3080 3081 3080 3080 3079 3079 3080 3079 3079 3079 3079 3080 3079 3077 3077 3075 3074 3070 3056 3046 3038 3024 3019 3024 3024 3023 3025 3025 3024 3024 3025 3025 3023 3022 3021 3022 3022 3020
3089 3088 3087 3093 3098 3098 3098 3097 3095 3094 3089 3084 3084 3085 3086 3089 3092 3095 3098 3098 3098 3098 3097 3096 3097 3096 3095 3096 3096 3096 3096 3094 3094 3095 3093 3090 3088 3087 3089 3090 3091 3093 3093 3093 3092 3091 3092 3090 3081 3074 3076 3075 3073 3073 3073 3074 3076 3075 3074 3074 3074 3075 3075 3073 3070 3067 3069 3066 3058 3053 3036 3013 3011 3018 3019 3021 3022 3020 3020 3021 3021 3020 3018 3017 3017 3017 3017 3015
3084 3081 3080 3086 3092 3092 3093 3089 3085 3084 3080 3077 3078 3081 3083 3085 3085 3088 3092 3093 3092 3091 3092 3092 3092 3091 3091 3091 3091 3091 3092 3090 3089 3089 3086 3084 3084 3084 3085 3086 3087 3088 3089 3088 3088 3088 3087 3085 3078 3073 3071 3068 3065 3067 3068 3068 3068 3067 3067 3067 3068 3069 3070 3070 3065 3060 3061 3057 3053 3053 3032 3005 3008 3016 3014 3017 3019 3016 3017 3017 3016 3016 3014 3013 3013 3013 3012 3010
3077 3074 3075 3080 3084 3085 3086 3081 3078 3077 3073 3071 3074 3078 3080 3079 3079 3082 3084 3085 3086 3086 3087 3086 3086 3086 3086 3086 3086 3087 3087 3085 3083 3082 3079 3078 3079 3081 3081 3082 3083 3083 3084 3083 3082 3083 3083 3080 3074 3068 3065 3064 3062 3062 3063 3062 3061 3061 3061 3060 3062 3064 3063 3064 3060 3053 3053 3049 3045 3048 3030 3002 3002 3011 3010 3013 3015 3013 3015 3014 3013 3012 3010 3009 3009 3007 3006 3005
3069 3069 3071 3074 3075 3077 3077 3073 3071 3069 3066 3067 3071 3073 3074 3073 3074 3076 3076 3078 3079 3079 3080 3080 3080 3082 3081 3081 3082 3082 3083 3081 3077 3075 3075 3074 3075 3076 3077 3078 3077 3078 3079 3078 3077 3078 3078 3075 3070 3064 3061 3060 3059 3058 3057 3056 3056 3055 3052 3053 3055 3055 3053 3054 3053 3049 3048 3043 3040 3044 3028 3001 2999 3006 3007 3009 3010 3009 3011 3010 3009 3008 3006 3005 3004 3002 3002 3000
3064 3065 3065 3065 3065 3067 3066 3063 3063 3063 3063 3065 3066 3066 3068 3068 3068 3068 3069 3070 3071 3072 3073 3073 3075 3076 3075 3077 3077 3077 3079 3077 3071 3069 3070 3070 3071 3072 3072 3072 3072 3072 3073 3073 3073 3073 3072 3069 3067 3063 3061 3057 3051 3051 3051 3050 3050 3047 3045 3047 3047 3046 3049 3050 3049 3048 3043 3034 3034 3036 3019 2998 2998 3004 3005 3006 3005 3005 3006 3005 3004 3004 3002 3001 2999 2997 2997 2996
3059 3058 3056 3056 3055 3055 3055 3056 3059 3059 3059 3061 3060 3060 3062 3060 3059 3061 3062 3063 3064 3066 3067 3068 3069 3070 3070 3072 3072 3072 3072 3070 3067 3066 3065 3065 3067 3067 3067 3067 3067 3066 3067 3068 3067 3067 3065 3063 3061 3062 3061 3056 3047 3045 3045 3045 3045 3041 3038 3041 3040 3041 3045 3044 3043 3044 3033 3025 3027 3022 3006 2996 2998 3000 3001 3002 3002 3001 3001 3001 2999 2998 2997 2996 2994 2993 2993 2992
3052 3049 3047 3046 3046 3045 3045 3049 3053 3052 3053 3056 3055 3053 3053 3050 3051 3055 3056 3056 3057 3059 3061 3061 3063 3064 3064 3064 3065 3065 3063 3063 3063 3061 3060 3061 3062 3062 3062 3061 3061 3062 3062 3062 3062 3061 3059 3054 3052 3053 3053 3047 3041 3041 3043 3043 3041 3037 3034 3034 3034 3036 3038 3037 3038 3031 3021 3021 3017 3004 2997 2997 2994 2996 2998 2997 2998 2998 2997 2996 2994 2993 2993 2991 2990 2990 2989 2988
3043 3038 3037 3038 3038 3037 3037 3040 3043 3044 3049 3051 3047 3043 3043 3042 3045 3048 3048 3049 3051 3054 3055 3054 3055 3056 3055 3057 3059 3057 3055 3056 3057 3056 3056 3057 3057 3057 3056 3055 3055 3056 3056 3057 3057 3055 3052 3046 3044 3044 3041 3036 3034 3037 3040 3039 3035 3032 3030 3028 3028 3030 3031 3030 3026 3015 3015 3021 3005 2988 2994 2996 2986 2991 2996 2993 2994 2994 2992 2991 2991 2990 2990 2988 2987 2986 2985 2983
3033 3030 3030 3031 3031 3030 3029 3030 3034 3039 3043 3043 3039 3037 3036 3034 3037 3038 3039 3043 3046 3048 3048 3046 3045 3045 3047 3052 3054 3050 3048 3049 3050 3050 3051 3052 3053 3052 3050 3049 3050 3050 3051 3051 3049 3049 3046 3039 3036 3038 3034 3029 3029 3032 3033 3032 3029 3026 3023 3022 3022 3023 3021 3018 3012 3007 3012 3012 2990 2980 2992 2990 2980 2986 2991 2988 2990 2989 2987 2988 2987 2986 2986 2983 2983 2982 2980 2978
3025 3023 3024 3023 3023 3024 3024 3026 3030 3031 3033 3035 3033 3029 3027 3026 3029 3031 3034 3039 3039 3038 3039 3036 3035 3039 3042 3046 3047 3042 3039 3041 3043 3044 3045 3047 3048 3046 3044 3045 3044 3044 3046 3045 3042 3043 3040 3033 3031 3032 3028 3022 3023 3025 3024 3025 3023 3016 3013 3015 3015 3013 3011 3009 3004 3002 3006 3000 2984 2982 2988 2980 2975 2981 2983 2984 2986 2984 2982 2983 2981 2981 2980 2978 2978 2977 2975 2974
3013 3013 3017 3017 3016 3019 3020 3021 3023 3020 3022 3026 3021 3016 3018 3021 3022 3025 3028 3031 3029 3027 3030 3029 3029 3035 3038 3038 3037 3030 3029 3034 3037 3039 3041 3042 3042 3040 3039 3039 3039 3039 3039 3037 3036 3037 3034 3028 3026 3027 3023 3016 3015 3018 3018 3018 3016 3008 3002 3004 3006 3005 3004 3001 2996 2996 2997 2990 2981 2983 2983 2972 2968 2974 2978 2979 2979 2977 2976 2976 2975 2975 2975 2974 2974 2972 2970 2969
3003 3007 3013 3011 3008 3011 3012 3011 3014 3013 3011 3010 3005 3006 3013 3013 3015 3021 3022 3022 3021 3020 3021 3023 3026 3030 3031 3029 3026 3021 3024 3031 3032 3033 3036 3036 3035 3035 3034 3033 3033 3033 3031 3030 3030 3030 3028 3024 3021 3022 3019 3011 3009 3012 3011 3011 3012 3002 2989 2988 2995 2996 2992 2989 2988 2987 2985 2981 2978 2980 2976 2965 2963 2970 2973 2972 2971 2971 2970 2970 2969 2970 2970 2970 2969 2967 2966 2965
2998 2999 3003 3003 2999 3002 3003 3001 3004 3003 2996 2994 2996 3002 3006 3005 3010 3018 3015 3013 3015 3016 3017 3019 3021 3022 3021 3018 3016 3017 3023 3028 3027 3028 3031 3029 3028 3029 3027 3026 3026 3025 3025 3026 3025 3023 3021 3018 3016 3017 3014 3007 3007 3008 3006 3010 3009 2990 2972 2974 2983 2984 2981 2981 2981 2977 2975 2976 2976 2971 2963 2959 2963 2967 2966 2964 2965 2965 2964 2964 2964 2965 2965 2965 2964 2963 2962 2960